Voltar ao catálogo

DELTA 1 R/B(1)

AtivoUNKNOWN
NORAD 11636·ROCKET BODY·🇺🇸 United States

Lançado Dec 7, 1979 de Cape Canaveral Space Force Station

Loading…

Próximas Passagens (próximas 24 horas)

TLE

AtualizadoSource: Space-Track

Época: Sep 14, 2026, 14:40 UTC

1 11636U 79101B   26257.61123584  .00000030  00000-0 -21261-4 0  9997
2 11636  28.2177  29.3240 1261042   0.3223 359.7926 12.21287112  8008

Acompanhe DELTA 1 R/B(1) em tempo real com AllMySat

Download on the App Store